Theta_e
363 362 363 363 362 360 361 361 359 361 360 357 355 358 361 360 367 365 365 368 367 370 371 373 371 368 366 367 371 366 366 364 363 364 366 365 363 360 354 358 355 353
364 363 363 362 363 364 365 362 362 360 361 366 361 361 363 367 363 366 366 367 368 366 373 370 368 370 371 368 368 365 371 370 367 362 365 365 362 360 357 358 355 357
363 363 361 361 359 361 360 362 363 362 361 359 362 364 360 364 366 365 369 368 364 363 367 372 372 369 365 369 370 366 363 366 363 363 368 366 362 364 361 358 358 360
362 363 360 357 358 356 360 361 361 362 362 359 361 360 360 357 361 364 368 366 367 367 367 367 367 366 366 368 369 365 367 365 366 369 368 368 366 363 364 362 359 359
361 360 361 360 359 360 360 358 358 357 358 358 359 362 361 364 364 363 365 365 368 368 368 371 369 366 370 369 367 365 366 367 364 367 364 363 367 365 359 361 362 357
361 362 362 359 361 358 357 357 357 357 357 356 358 359 361 361 360 361 362 363 363 362 363 363 366 364 366 368 368 365 363 359 366 369 364 364 364 365 361 362 366 361
357 359 358 358 356 358 358 358 358 358 358 357 358 358 360 360 360 362 363 362 362 361 360 364 367 366 366 368 369 370 365 365 368 368 364 365 367 364 361 363 363 363
358 358 359 357 354 353 354 355 356 357 359 360 357 359 360 360 362 361 363 363 360 361 363 363 367 369 367 365 366 368 367 363 357 362 364 363 367 368 366 359 364 364
355 355 355 354 352 351 350 350 352 354 357 357 354 357 361 358 360 360 361 363 362 361 364 364 370 369 366 365 366 368 368 363 359 363 363 361 360 361 359 362 361 363
353 353 351 351 350 349 348 349 348 349 353 354 353 353 352 358 358 360 361 367 363 365 369 365 367 364 365 366 366 368 366 364 362 364 366 364 362 362 363 364 361 363
354 353 351 353 353 350 347 348 348 348 350 351 352 351 350 353 359 360 363 367 362 363 365 364 364 365 365 365 366 365 364 361 364 364 362 362 363 364 363 363 363 363
356 354 354 354 354 354 353 348 347 347 348 350 351 352 350 348 354 359 361 366 365 364 364 365 365 366 367 365 364 364 364 364 365 366 363 364 363 361 361 361 359 358
359 357 355 355 358 359 359 357 351 347 347 347 350 350 350 348 348 357 361 363 365 364 363 364 367 365 367 367 365 365 364 364 362 363 362 362 362 359 359 361 360 359
360 358 359 361 360 361 361 360 356 350 349 349 349 350 349 348 347 349 356 359 362 362 363 364 366 366 366 368 368 364 363 363 363 363 361 362 361 362 359 358 359 358
361 359 362 365 365 367 367 366 363 357 353 352 352 350 349 351 349 347 350 354 356 356 358 357 356 358 361 363 362 363 362 360 361 362 362 360 361 360 360 359 358 357
363 364 364 365 365 365 368 368 366 365 362 359 356 355 357 357 356 351 349 351 353 355 355 352 352 353 365 364 364 364 362 359 355 359 361 360 360 358 357 358 358 357
359 359 360 361 363 363 363 363 362 362 361 361 361 362 361 361 356 354 351 349 350 353 355 352 351 356 349 344 346 354 361 363 361 364 366 366 364 365 363 360 360 359
356 357 357 357 357 357 358 359 360 359 359 362 362 360 363 360 356 356 357 354 352 353 352 351 349 335 333 336 341 342 356 363 357 356 357 358 360 359 360 360 358 356
354 354 353 354 356 356 356 356 358 358 358 358 357 359 359 359 358 356 357 357 354 355 354 354 353 333 331 333 334 336 338 356 355 355 354 354 356 357 359 360 360 359
354 353 353 354 356 356 356 355 355 356 357 358 357 358 358 359 358 357 359 361 359 359 362 355 353 332 328 329 331 332 335 343 360 360 357 355 355 356 357 359 362 361
350 351 351 350 352 353 352 354 359 357 356 357 360 361 359 357 357 353 357 356 359 358 355 348 340 325 325 327 326 327 329 342 358 361 359 358 357 355 357 357 361 361
343 344 346 347 347 348 350 351 354 353 357 360 360 356 352 354 358 357 353 350 349 350 351 351 337 317 320 321 322 324 330 353 360 360 361 360 359 361 363 366 366 364
342 341 341 341 343 345 345 345 345 347 348 352 354 356 353 353 351 352 355 351 347 348 346 346 337 322 316 317 318 319 339 357 361 360 355 348 350 352 354 359 355 354
340 340 339 338 338 338 339 341 343 346 347 349 349 350 351 350 349 353 351 348 348 344 346 337 334 323 313 314 315 316 333 352 359 356 354 355 355 353 354 354 357 361
337 337 337 338 337 337 338 339 339 343 346 349 349 348 348 350 352 352 353 349 348 346 344 339 336 330 314 312 312 314 333 353 361 358 354 354 354 351 354 354 354 347
332 335 335 335 337 337 337 337 339 342 343 346 348 349 349 348 348 351 346 346 345 340 338 336 335 332 324 311 311 312 314 344 358 360 352 352 352 355 353 352 353 343
Wind_Speed
8 8 7 6 5 5 5 5 6 6 4 4 5 5 4 4 1 3 2 5 4 4 4 3 3 3 3 3 2 3 2 2 3 3 2 4 4 3 3 1 3 3
8 7 6 6 5 4 4 5 5 4 4 3 2 4 4 5 5 4 3 3 4 4 4 4 4 4 3 3 3 3 2 2 3 2 1 2 4 4 4 4 3 3
8 8 8 8 8 7 8 6 4 5 5 6 4 3 5 4 5 5 4 5 4 4 5 3 4 4 4 2 3 3 4 3 3 2 1 2 4 4 4 5 3 2
9 9 9 9 7 9 8 7 6 5 5 6 6 5 5 4 5 6 5 4 4 3 5 5 5 4 5 4 3 4 2 4 4 2 2 3 3 4 4 3 3 4
10 9 8 8 7 6 6 7 7 7 7 6 6 5 6 1 3 5 5 5 5 5 4 5 5 7 5 4 4 4 3 3 6 4 3 3 3 4 4 3 2 3
9 9 8 7 7 8 7 7 7 7 8 7 6 6 6 6 6 5 6 6 6 6 5 6 6 5 6 6 5 5 5 1 3 1 5 3 5 4 4 2 2 3
10 10 11 9 9 8 8 8 8 7 7 7 7 7 6 7 7 6 5 6 6 5 6 5 5 4 4 5 5 5 4 3 6 4 5 4 4 4 5 3 3 3
10 10 10 9 10 9 9 8 8 8 7 7 7 7 7 6 6 7 7 6 7 5 5 4 5 5 5 5 6 6 6 6 7 6 4 5 4 4 4 4 3 4
8 8 9 10 11 10 11 10 10 9 8 8 8 7 7 7 7 7 7 6 6 6 6 6 5 6 6 6 5 6 6 6 4 6 6 5 6 5 5 4 4 5
10 10 11 10 10 9 11 11 11 10 9 9 9 8 8 8 7 7 7 6 6 5 5 6 7 6 7 7 7 6 6 6 5 4 5 6 6 5 5 5 5 4
10 9 10 9 9 9 11 12 11 10 9 10 9 9 9 8 7 7 6 7 7 8 7 8 7 8 7 7 6 7 7 7 6 6 6 6 6 5 5 4 5 5
10 10 10 10 9 9 9 10 10 10 10 9 9 8 9 8 8 8 8 8 8 8 8 8 8 8 8 7 8 7 7 6 6 6 6 7 7 7 7 7 7 7
10 9 9 9 9 9 8 9 10 9 10 10 9 10 9 10 9 9 8 8 9 8 8 8 8 8 8 8 8 8 7 6 7 7 7 6 7 7 7 7 8 8
9 9 9 8 8 8 9 9 10 11 10 9 8 9 10 10 10 10 9 9 9 9 9 8 7 8 9 8 8 8 8 7 7 7 7 7 7 7 8 8 7 8
7 6 5 4 4 5 6 7 8 9 9 9 8 8 9 10 10 10 10 11 10 9 10 9 10 10 9 9 9 9 9 9 8 8 7 7 7 7 7 7 8 7
7 5 6 6 5 5 4 4 5 5 6 7 9 9 9 8 8 9 10 10 10 10 10 10 8 9 6 4 4 4 7 7 7 8 7 7 6 8 8 8 8 8
6 7 6 6 5 4 5 5 4 3 4 5 7 8 7 7 8 9 10 10 10 9 10 9 9 2 8 9 7 3 5 6 6 5 5 5 7 7 6 7 8 8
5 5 6 7 7 6 6 7 7 6 6 6 7 9 8 8 9 9 9 10 8 11 9 10 2 10 9 9 8 6 4 4 7 8 7 8 8 9 8 8 8 8
8 8 9 9 8 8 8 9 10 10 9 9 9 8 6 7 8 10 10 9 9 8 9 2 8 11 10 9 7 6 4 4 7 9 9 9 9 8 9 8 7 7
5 9 9 8 7 7 8 10 11 11 11 10 9 8 8 7 8 10 9 9 7 9 4 7 5 10 10 9 8 8 6 4 6 8 10 10 10 9 8 9 8 8
2 3 5 5 5 7 10 11 9 9 10 9 8 5 2 3 6 7 6 7 6 4 6 6 6 11 10 9 9 8 8 6 6 8 9 10 10 10 9 9 8 7
4 5 4 4 5 4 3 6 8 10 9 9 5 4 4 3 6 2 1 2 6 6 3 4 5 9 8 8 9 9 9 5 7 8 7 9 10 8 8 5 7 6
5 6 6 6 5 3 4 6 7 6 7 6 5 6 7 5 5 6 1 5 4 3 2 3 6 8 9 9 9 10 7 5 5 4 6 6 8 8 11 10 13 12
4 5 6 6 5 5 6 6 5 6 6 5 5 3 4 4 6 2 4 8 8 4 2 5 5 8 10 11 11 10 7 5 4 3 2 4 4 4 6 5 3 9
6 6 6 6 6 6 6 6 5 5 4 4 2 2 3 3 5 4 4 6 9 8 8 6 6 7 11 11 12 11 8 5 4 4 5 2 3 5 5 0 3 8
6 7 6 6 7 7 6 5 4 4 5 4 4 3 4 5 5 5 7 6 8 8 6 6 6 6 7 10 11 12 11 6 4 2 4 4 2 1 1 1 1 3
Wind_Direction
183 194 191 193 195 200 183 181 188 184 214 173 184 186 119 199 79 144 187 143 180 197 173 202 200 213 206 202 207 224 277 298 330 230 278 299 286 273 275 324 288 278
196 194 189 200 185 193 196 191 200 198 175 254 239 130 175 154 186 175 186 187 176 198 181 184 204 218 232 201 191 225 219 254 233 242 229 258 270 274 261 258 280 307
194 195 197 201 189 196 195 196 190 203 180 207 204 184 190 178 192 179 182 213 210 194 169 202 191 209 216 209 215 234 218 203 254 251 220 281 285 297 292 293 286 248
198 203 198 208 196 198 209 190 190 210 214 185 203 195 236 169 183 167 183 217 207 229 193 194 180 219 215 204 210 240 201 228 232 259 253 247 255 280 290 282 286 292
196 200 209 209 212 218 204 207 210 191 216 198 200 196 199 214 197 184 189 191 211 206 209 201 188 208 193 202 215 232 218 222 226 207 236 237 240 241 256 277 310 291
195 195 204 220 214 208 212 204 208 217 200 198 208 198 193 192 219 224 195 202 192 214 200 206 200 204 201 190 211 225 234 184 55 186 244 234 257 253 249 198 213 249
193 194 200 202 214 213 219 208 203 216 211 214 195 212 204 190 202 222 212 210 228 207 215 194 205 214 207 200 198 215 232 217 172 210 241 241 232 255 258 251 237 262
201 198 202 200 206 209 214 216 215 204 211 215 217 196 213 211 199 209 207 214 219 214 228 205 194 210 231 215 215 213 226 209 210 212 216 246 262 238 245 258 240 241
205 212 211 205 212 210 207 213 213 215 210 214 218 211 201 216 209 216 213 206 225 222 204 217 198 212 222 235 224 220 225 246 226 191 209 224 221 225 238 245 242 237
202 209 213 212 214 218 215 215 213 207 206 217 219 214 218 204 217 215 200 202 213 222 204 223 211 218 229 220 223 225 233 228 249 243 227 223 230 238 235 230 243 245
211 211 214 209 218 224 224 214 218 214 199 212 213 217 223 211 194 214 202 196 214 215 220 221 222 220 224 237 229 220 220 229 228 224 230 235 243 237 249 262 261 261
210 210 215 212 215 226 239 245 223 216 214 201 218 220 220 225 202 203 203 201 213 219 218 219 222 225 225 232 237 230 219 232 228 224 227 232 232 232 230 224 225 237
211 216 218 212 208 214 221 238 246 237 224 219 207 216 219 227 210 204 206 208 209 219 221 217 220 224 228 224 237 244 245 232 237 226 231 227 233 239 237 227 231 228
212 214 214 221 214 210 216 223 235 242 241 237 236 217 219 225 227 205 204 214 213 215 220 221 226 234 221 227 230 238 237 231 231 246 244 241 246 240 241 243 236 237
213 209 207 216 217 218 223 228 234 243 246 243 234 240 232 228 227 224 214 214 215 216 221 222 218 221 224 220 222 226 238 239 233 232 237 244 244 247 251 254 256 255
210 206 202 203 210 211 220 228 233 247 255 249 241 232 240 245 241 233 230 221 218 219 218 224 227 231 215 183 202 220 236 259 265 244 240 241 245 253 247 246 249 256
218 226 222 221 217 222 225 229 243 267 276 265 254 247 245 242 239 237 235 236 227 225 224 225 235 56 83 130 126 99 252 228 240 257 246 250 243 239 255 258 261 262
207 226 235 231 226 219 226 235 243 243 251 253 249 238 235 244 234 232 238 236 228 228 226 233 132 24 21 49 53 54 14 282 260 255 248 241 238 242 243 246 247 250
217 213 223 228 217 211 211 221 224 230 230 232 238 245 249 242 253 238 226 232 240 241 243 70 67 39 22 25 37 28 38 303 262 264 267 258 247 239 242 247 251 250
224 224 219 222 219 214 229 229 227 226 227 226 223 227 234 232 245 256 238 228 227 232 82 71 78 25 12 14 24 15 4 312 268 268 261 263 266 260 250 238 231 245
138 211 229 245 251 233 227 229 227 232 229 227 219 221 257 297 275 264 292 296 271 31 63 78 50 22 14 2 8 7 357 324 276 265 259 258 263 260 258 257 255 248
82 79 84 68 38 23 317 282 259 244 227 209 181 184 219 263 254 265 276 322 347 27 309 49 67 33 13 8 7 4 353 293 267 270 294 302 287 291 280 278 273 284
82 78 72 64 60 37 30 30 25 349 12 326 198 198 194 199 264 255 211 76 37 237 181 61 56 25 11 18 12 11 340 306 303 319 34 338 306 316 320 345 22 2
63 84 84 80 71 59 48 32 31 24 23 1 356 104 154 184 221 297 152 155 161 164 157 97 80 40 22 21 16 9 353 307 308 303 194 224 279 342 352 34 7 47
58 60 73 77 81 78 58 50 35 33 21 12 27 30 76 97 121 222 140 126 128 135 123 105 79 54 31 23 20 17 357 310 298 291 290 314 346 6 310 118 345 45
64 65 65 66 70 68 67 63 58 33 28 19 34 31 45 46 78 86 109 121 120 111 91 84 83 63 34 29 30 21 7 330 281 282 299 278 136 213 187 333 26 85